Weather History for Aberdeen, SD

Change the Weather History Date:

Thursday, September 27, 2012

  Actual Average Record
Temperature  
Mean Temperature 58 °F 54 °F  
Max Temperature 81 °F 67 °F 95 °F (1952)
Min Temperature 35 °F 41 °F 22 °F (1900)
Degree Days  
Heating Degree Days 7 12  
Month to date heating degree days 200 187  
Since 1 July heating degree days 233 238  
Cooling Degree Days 0 0  
Month to date cooling degree days 42 39  
Year to date cooling degree days 764 522  
Growing Degree Days 8 (Base 50)    
Moisture  
Dew Point 31 °F    
Average Humidity 47    
Maximum Humidity 75    
Minimum Humidity 19    
Precipitation  
Precipitation 0.00 in 0.07 in 1.02 in (1929)
Month to date precipitation 0.01 1.97  
Year to date precipitation 12.45 18.26  
Sea Level Pressure  
Sea Level Pressure 30.16 in    
Wind  
Wind Speed 8 mph (South)    
Max Wind Speed 17 mph    
Max Gust Speed 21 mph    
Visibility 10 miles    
Events      
T = Trace of Precipitation, MM = Missing Value Source: NWS Daily Summary

Daily Weather History Graph

Daily Weather History Graph

Search for Another Location

Airport:

Trip Planner

Search our weather history database for the weather conditions in past years. The results will help you decide how hot, cold, wet, or windy it might be!

Date:

Astronomy

Sep. 27, 2012 Rise Set
Actual Time 7:27 AM CDT 7:20 PM CDT
Civil Twilight 6:58 AM CDT 7:49 PM CDT
Nautical Twilight 6:23 AM CDT 8:24 PM CDT
Astronomical Twilight 5:48 AM CDT 8:59 PM CDT
Moon 5:56 PM CDT (9/27) 4:52 AM CDT (9/27)
Length of Visible Light 12h 51m
Length of Day
11h 53m
Waxing Gibbous, 94% of the Moon is Illuminated
Sep 27
Waxing Gibbous
Sep 29
Full
Oct 8
Last Quarter
Oct 15
New
Oct 21
First Quarter

Hourly Weather History & Observations

Time (CDT) Temp. Windchill Dew Point Humidity Pressure Visibility Wind Dir Wind Speed Gust Speed Precip Events Conditions
12:53 AM 44.1 °F 41.5 °F 30.9 °F 60% 30.18 in 10.0 mi South 4.6 mph - N/A   Clear
1:53 AM 45.0 °F - 30.0 °F 56% 30.18 in 10.0 mi Calm Calm - N/A   Clear
2:53 AM 43.0 °F - 30.0 °F 60% 30.17 in 10.0 mi Calm Calm - N/A   Clear
3:53 AM 39.9 °F 37.8 °F 28.9 °F 65% 30.19 in 10.0 mi WSW 3.5 mph - N/A   Clear
4:53 AM 37.4 °F 34.9 °F 28.4 °F 70% 30.19 in 10.0 mi SSW 3.5 mph - N/A   Clear
5:53 AM 36.0 °F 31.1 °F 28.9 °F 76% 30.20 in 10.0 mi SSE 5.8 mph - N/A   Clear
6:53 AM 37.4 °F 32.1 °F 28.4 °F 70% 30.20 in 10.0 mi SSE 6.9 mph - N/A   Clear
7:53 AM 39.9 °F 34.5 °F 30.0 °F 68% 30.21 in 10.0 mi SSE 8.1 mph - N/A   Clear
8:53 AM 48.0 °F - 30.9 °F 52% 30.20 in 10.0 mi SSE 11.5 mph - N/A   Clear
9:53 AM 55.0 °F - 32.0 °F 42% 30.20 in 10.0 mi SSE 8.1 mph - N/A   Clear
10:53 AM 64.0 °F - 32.0 °F 30% 30.18 in 10.0 mi South 12.7 mph - N/A   Clear
11:53 AM 70.0 °F - 30.0 °F 23% 30.17 in 10.0 mi South 12.7 mph - N/A   Clear
12:53 PM 73.4 °F - 30.2 °F 20% 30.15 in 10.0 mi SSE 13.8 mph - N/A   Clear
1:53 PM 75.9 °F - 30.9 °F 19% 30.13 in 10.0 mi South 11.5 mph 19.6 mph N/A   Clear
2:53 PM 78.1 °F - 33.1 °F 19% 30.12 in 10.0 mi SSE 12.7 mph - N/A   Clear
3:53 PM 80.1 °F - 35.1 °F 20% 30.10 in 10.0 mi SSE 9.2 mph - N/A   Clear
4:53 PM 80.1 °F - 35.1 °F 20% 30.09 in 10.0 mi South 9.2 mph - N/A   Clear
5:53 PM 79.0 °F - 35.1 °F 20% 30.09 in 10.0 mi South 8.1 mph - N/A   Clear
6:53 PM 70.0 °F - 36.0 °F 29% 30.10 in 10.0 mi SSE 8.1 mph - N/A   Clear
7:53 PM 61.0 °F - 35.1 °F 38% 30.11 in 10.0 mi SSE 5.8 mph - N/A   Clear
8:53 PM 57.9 °F - 34.0 °F 41% 30.12 in 10.0 mi SSE 9.2 mph - N/A   Clear
9:53 PM 57.9 °F - 30.9 °F 36% 30.12 in 10.0 mi South 8.1 mph - N/A   Clear
10:53 PM 54.0 °F - 30.0 °F 40% 30.12 in 10.0 mi South 9.2 mph - N/A   Clear
11:53 PM 52.0 °F - 30.0 °F 43% 30.12 in 10.0 mi South 10.4 mph - N/A   Clear